Regional Weather Roundup
Issued by NWS

Home | Current Version | Previous Version | Text Only | Print | Product List | Glossary Off
Versions: 1 2 3 4 5 6 7 8 9 10 11 12 13 14 15 16 17 18 19 20 21 22 23 24 25 26 27 28 29 30 31 32 33 34 35 36 37 38 39 40 41 42 43 44 45 46 47 48 49 50

000
ASUS43 KFSD 181302
RWRSD

WEATHER ROUNDUP FOR SOUTH DAKOTA
NATIONAL WEATHER SERVICE SIOUX FALLS SD
700 AM CST THU JAN 18 2018

NOTE: "FAIR" INDICATES FEW OR NO CLOUDS BELOW 12,000 FEET WITH NO
SIGNIFICANT WEATHER AND/OR OBSTRUCTIONS TO VISIBILITY.


SDZ001>005-009-010-012>017-181400-
NORTHWEST AND NORTH CENTRAL SOUTH DAKOTA

CITY           SKY/WX    TMP DP  RH WIND       PRES   REMARKS
BUFFALO          N/A     36  21  54 W9        29.80S
FAITH            N/A     34  21  59 SW9       29.86S WCI  27
MOBRIDGE       CLEAR     23  17  78 CALM      29.83F
$$

SDZ012>016-024>037-041>051-057-063-072>074-181400-
SOUTHWEST AND SOUTH CENTRAL SOUTH DAKOTA

CITY           SKY/WX    TMP DP  RH WIND       PRES   REMARKS
RAPID CTY ARPT CLOUDY    38  17  42 W8        29.90S
PIERRE         PTCLDY    22  19  89 SW5       29.89S WCI  16
CUSTER         CLOUDY    38   9  30 NW6       29.96S
ELLSWORTH AFB  CLOUDY    31  17  57 W8        29.88F WCI  23
PHILIP         PTCLDY    27  21  78 W15       29.89F WCI  15
PINE RIDGE     MOCLDY    27  18  69 W6        29.95F WCI  20
SPEARFISH        N/A     39  14  35 CALM      29.91S
WINNER         FAIR      33  22  63 SW10      29.90F WCI  25
$$

SDZ004>011-016>023-039-040-181400-
NORTHEAST SOUTH DAKOTA

CITY           SKY/WX    TMP DP  RH WIND       PRES   REMARKS
ABERDEEN       CLEAR     18  15  88 S10       29.87F WCI   6
WATERTOWN      CLOUDY    16  13  88 CALM      29.87F
BROOKINGS      CLOUDY    18  15  88 S12       29.90F WCI   5
SISSETON         N/A     36  23  59 W22       29.79F
$$

SDZ017-020-022-023-036>040-048>070-181400-
SOUTHEAST SOUTH DAKOTA

CITY           SKY/WX    TMP DP  RH WIND       PRES   REMARKS
SIOUX FALLS    CLOUDY    13  13 100 CALM      29.95F
HURON          CLEAR     20  17  88 S9        29.90F WCI   9
CHAMBERLAIN    CLEAR     28  22  80 CALM      29.90F
MITCHELL       CLEAR     15  13  91 SE6       29.94F WCI   6
YANKTON        CLOUDY    16  13  88 E5        29.97F WCI   9
$$

ABBREVIATIONS USED IN REMARKS
   TC - TEMPERATURE IN CELSIUS
  WCI - WIND CHILL INDEX
   HX - HEAT INDEX
  VSB - VISIBILITY





USA.gov is the U.S. government's official web portal to all federal, state and local government web resources and services.